Estación de Purranque
Ultimos registro cada 15 minutos 48
| N° | Estación | Fecha / Hora | Temperatura | Humedad | Lluvia | Velocidad | Dirección | Radiación | Presion |
| 48 | Purranque | 06-05-2026 11:45 | 9,8 | 91,2 | 0 | 4 | 223 | 150,6 | 999,9 |
| 47 | Purranque | 06-05-2026 11:30 | 9,5 | 90,6 | 0 | 4 | 218 | 193,1 | 999,5 |
| 46 | Purranque | 06-05-2026 11:15 | 9,3 | 92,6 | 0 | 3,3 | 222 | 109,4 | 999,3 |
| 45 | Purranque | 06-05-2026 11:00 | 9,3 | 94,3 | 0 | 3,3 | 220 | 150,6 | 998,9 |
| 44 | Purranque | 06-05-2026 10:45 | 8,9 | 94,8 | 0 | 3,3 | 222 | 118,1 | 998,8 |
| 43 | Purranque | 06-05-2026 10:30 | 8,7 | 95 | 0 | 3,3 | 225 | 80,6 | 998,6 |
| 42 | Purranque | 06-05-2026 10:15 | 8,5 | 95,5 | 0 | 3 | 229 | 61,9 | 998,5 |
| 41 | Purranque | 06-05-2026 10:00 | 8,3 | 96,2 | 0 | 3,3 | 227 | 39,4 | 998,3 |
| 40 | Purranque | 06-05-2026 09:45 | 8,3 | 96,5 | 0 | 3,7 | 236 | 29,4 | 998,3 |
| 39 | Purranque | 06-05-2026 09:30 | 8,3 | 96,6 | 0 | 3,3 | 230 | 40,6 | 997,9 |
| 38 | Purranque | 06-05-2026 09:15 | 8,4 | 96,6 | 0 | 4 | 215 | 43,1 | 997,7 |
| 37 | Purranque | 06-05-2026 09:00 | 8,2 | 97,5 | 0 | 4,3 | 216 | 50,6 | 997,4 |
| 36 | Purranque | 06-05-2026 08:45 | 8,2 | 98,1 | 0 | 4 | 220 | 15,6 | 997,3 |
| 35 | Purranque | 06-05-2026 08:30 | 8,1 | 98,4 | 0 | 4,3 | 219 | 13,1 | 996,9 |
| 34 | Purranque | 06-05-2026 08:15 | 8,1 | 99 | 0 | 3,3 | 222 | 4,4 | 996,9 |
| 33 | Purranque | 06-05-2026 08:00 | 8,1 | 99,9 | 0 | 3,3 | 216 | 3,1 | 996,7 |
| 32 | Purranque | 06-05-2026 07:45 | 8,1 | 100 | 0,2 | 4 | 216 | 0,6 | 996,7 |
| 31 | Purranque | 06-05-2026 07:30 | 8,3 | 100 | 0,6 | 4 | 216 | 0,6 | 996,8 |
| 30 | Purranque | 06-05-2026 07:15 | 8,4 | 100 | 0,2 | 3,7 | 220 | 0,6 | 996,7 |
| 29 | Purranque | 06-05-2026 07:00 | 8,5 | 100 | 0,4 | 3,3 | 215 | 0,6 | 996,5 |
| 28 | Purranque | 06-05-2026 06:45 | 8,5 | 100 | 0,4 | 2,7 | 222 | 0,6 | 996,6 |
| 27 | Purranque | 06-05-2026 06:30 | 8,6 | 100 | 0,4 | 2,7 | 227 | 0,6 | 996,6 |
| 26 | Purranque | 06-05-2026 06:15 | 8,6 | 100 | 0,4 | 2 | 223 | 0,6 | 996,5 |
| 25 | Purranque | 06-05-2026 06:00 | 8,7 | 100 | 0,4 | 2,3 | 220 | 0,6 | 996,4 |
| 24 | Purranque | 06-05-2026 05:45 | 8,7 | 100 | 0,4 | 2,7 | 222 | 0,6 | 996,2 |
| 23 | Purranque | 06-05-2026 05:30 | 8,8 | 100 | 0,2 | 2,7 | 226 | 0,6 | 996,2 |
| 22 | Purranque | 06-05-2026 05:15 | 8,9 | 100 | 0,6 | 2,7 | 230 | 0,6 | 996,2 |
| 21 | Purranque | 06-05-2026 05:00 | 8,9 | 100 | 0,6 | 2,3 | 233 | 0,6 | 996,1 |
| 20 | Purranque | 06-05-2026 04:45 | 9 | 100 | 0,8 | 2,3 | 230 | 0,6 | 996 |
| 19 | Purranque | 06-05-2026 04:30 | 9 | 100 | 0,6 | 2 | 218 | 0,6 | 995,8 |
| 18 | Purranque | 06-05-2026 04:15 | 9 | 100 | 0,4 | 2,3 | 202 | 0,6 | 995,8 |
| 17 | Purranque | 06-05-2026 04:00 | 9 | 100 | 0,6 | 1,7 | 232 | 0,6 | 995,8 |
| 16 | Purranque | 06-05-2026 03:45 | 9 | 100 | 0,6 | 1,7 | 219 | 0,6 | 996,1 |
| 15 | Purranque | 06-05-2026 03:30 | 9 | 100 | 0,8 | 1,7 | 225 | 0,6 | 995,9 |
| 14 | Purranque | 06-05-2026 03:15 | 8,9 | 100 | 1 | 1,7 | 216 | 0,6 | 995,8 |
| 13 | Purranque | 06-05-2026 03:00 | 8,9 | 100 | 0,6 | 1,7 | 220 | 0,6 | 996 |
| 12 | Purranque | 06-05-2026 02:45 | 8,9 | 100 | 0,4 | 1,7 | 219 | 0,6 | 996,2 |
| 11 | Purranque | 06-05-2026 02:30 | 8,9 | 100 | 0,6 | 1,3 | 202 | 0,6 | 996 |
| 10 | Purranque | 06-05-2026 02:15 | 8,9 | 100 | 1 | 1,7 | 213 | 0,6 | 996,1 |
| 9 | Purranque | 06-05-2026 02:00 | 8,9 | 100 | 0,6 | 2 | 225 | 0,6 | 996,3 |
| 8 | Purranque | 06-05-2026 01:45 | 8,9 | 100 | 1,2 | 2 | 223 | 0,6 | 996,3 |
| 7 | Purranque | 06-05-2026 01:30 | 9 | 100 | 0,6 | 2,3 | 211 | 0,6 | 996,2 |
| 6 | Purranque | 06-05-2026 01:15 | 9,2 | 99,8 | 0,6 | 2,3 | 211 | 0,6 | 996,2 |
| 5 | Purranque | 06-05-2026 01:00 | 9,3 | 99,7 | 0 | 2,3 | 208 | 0,6 | 996,2 |
| 4 | Purranque | 06-05-2026 00:45 | 9,3 | 99,8 | 0,2 | 2,7 | 219 | 0,6 | 996,2 |
| 3 | Purranque | 06-05-2026 00:30 | 9,4 | 100 | 0,2 | 2,3 | 226 | 0,6 | 996,2 |
| 2 | Purranque | 06-05-2026 00:15 | 9,6 | 100 | 0,2 | 2,3 | 232 | 0,6 | 996 |
| 1 | Purranque | 06-05-2026 00:00 | 9,8 | 100 | 0,2 | 1,7 | 240 | 0,6 | 996,2 |